Weather History for Washington, MO

Change the Weather History Date:

Sunday, June 23, 2013

  Actual Average (KSTL) Record (KSTL)
Temperature  
Mean Temperature 78 °F 78 °F  
Max Temperature 89 °F 87 °F 101 °F (1930)
Min Temperature 68 °F 69 °F 52 °F (1972)
Degree Days  
Heating Degree Days 0 0  
Month to date heating degree days 3  
Since 1 June heating degree days 3  
Since 1 July heating degree days 4533  
Cooling Degree Days 14 13  
Month to date cooling degree days 235  
Year to date cooling degree days 409  
Since 1 June cooling degree days 235  
Growing Degree Days 28 (Base 50)    
Moisture  
Dew Point 69 °F    
Average Humidity 82    
Maximum Humidity 100    
Minimum Humidity 55    
Precipitation  
Precipitation 1.32 in 0.14 in 2.31 in (1924)
Month to date precipitation 3.39  
Year to date precipitation 19.76  
Snow  
Snow 0.00 in 0.00 in 0.00 in (2013)
Month to date snowfall 0.0  
Since 1 June snowfall 0.0  
Since 1 July snowfall 17.7  
Snow Depth -    
Sea Level Pressure  
Sea Level Pressure 30.00 in    
Wind  
Wind Speed 6 mph (SSE)    
Max Wind Speed 18 mph    
Max Gust Speed 44 mph    
Visibility 10 miles    
Events Rain , Thunderstorm    
T = Trace of Precipitation, MM = Missing Value Source: NWS Daily Summary

Daily Weather History Graph

Daily Weather History Graph

Search for Another Location

Airport:

Trip Planner

Search our weather history database for the weather conditions in past years. The results will help you decide how hot, cold, wet, or windy it might be!

Date:

Astronomy

Jun. 23, 2013 Rise Set
Actual Time 5:40 AM CDT 8:32 PM CDT
Civil Twilight 5:08 AM CDT 9:04 PM CDT
Nautical Twilight 4:28 AM CDT 9:44 PM CDT
Astronomical Twilight 3:42 AM CDT 10:30 PM CDT
Moon 8:45 PM CDT (6/23) 5:57 AM CDT (6/23)
Length of Visible Light 15h 55m
Length of Day
14h 51m
Full, 100% of the Moon is Illuminated
Jun 23
Full
Jun 29
Last Quarter
Jul 8
New
Jul 15
First Quarter
Jul 22
Full

Hourly Weather History & Observations

Time (CDT) Temp. Heat Index Dew Point Humidity Pressure Visibility Wind Dir Wind Speed Gust Speed Precip Events Conditions
12:15 AM 71.6 °F - 64.4 °F 78% 30.01 in 10.0 mi SE 5.8 mph - N/A   Partly Cloudy
12:35 AM 71.6 °F - 64.4 °F 78% 30.00 in 10.0 mi SE 3.5 mph - N/A   Mostly Cloudy
12:55 AM 71.6 °F - 66.2 °F 83% 29.99 in 10.0 mi Calm Calm - N/A   Scattered Clouds
1:15 AM 69.8 °F - 66.2 °F 88% 29.98 in 10.0 mi Calm Calm - N/A   Scattered Clouds
1:35 AM 71.6 °F - 64.4 °F 78% 29.98 in 10.0 mi NNW 4.6 mph - N/A   Scattered Clouds
1:55 AM 69.8 °F - 66.2 °F 88% 29.97 in 10.0 mi NW 4.6 mph - N/A   Partly Cloudy
2:15 AM 71.6 °F - 64.4 °F 78% 29.96 in 10.0 mi NNE 3.5 mph - N/A   Clear
2:35 AM 71.6 °F - 64.4 °F 78% 29.97 in 10.0 mi Calm Calm - N/A   Clear
2:55 AM 71.6 °F - 64.4 °F 78% 29.98 in 10.0 mi Calm Calm - N/A   Clear
3:15 AM 69.8 °F - 66.2 °F 88% 29.98 in 10.0 mi SE 5.8 mph - N/A   Clear
3:35 AM 71.6 °F - 66.2 °F 83% 29.99 in 10.0 mi ESE 8.1 mph - N/A   Clear
3:55 AM 71.6 °F - 66.2 °F 83% 29.99 in 10.0 mi SE 10.4 mph - N/A   Clear
4:15 AM 71.6 °F - 64.4 °F 78% 29.99 in 10.0 mi ESE 10.4 mph 16.1 mph N/A   Clear
4:35 AM 71.6 °F - 64.4 °F 78% 30.00 in 10.0 mi ESE 9.2 mph - N/A   Clear
4:55 AM 69.8 °F - 66.2 °F 88% 30.01 in 10.0 mi SE 5.8 mph - N/A   Clear
5:15 AM 69.8 °F - 66.2 °F 88% 30.02 in 10.0 mi SE 6.9 mph - N/A   Clear
5:35 AM 69.8 °F - 66.2 °F 88% 30.02 in 10.0 mi SE 5.8 mph - N/A   Clear
5:55 AM 69.8 °F - 66.2 °F 88% 30.02 in 10.0 mi SE 5.8 mph - N/A   Clear
6:15 AM 68.0 °F - 66.2 °F 94% 30.03 in 10.0 mi SE 6.9 mph - N/A   Clear
6:35 AM 68.0 °F - 66.2 °F 94% 30.03 in 10.0 mi SE 6.9 mph - N/A   Clear
6:55 AM 69.8 °F - 66.2 °F 88% 30.03 in 10.0 mi SE 6.9 mph - N/A   Clear
7:15 AM 69.8 °F - 66.2 °F 88% 30.03 in 10.0 mi SE 6.9 mph - N/A   Clear
7:35 AM 71.6 °F - 66.2 °F 83% 30.03 in 10.0 mi SE 5.8 mph - N/A   Clear
7:55 AM 71.6 °F - 66.2 °F 83% 30.03 in 10.0 mi SSE 6.9 mph - N/A   Clear
8:15 AM 71.6 °F - 66.2 °F 83% 30.02 in 10.0 mi SE 5.8 mph - N/A   Clear
8:35 AM 73.4 °F - 68.0 °F 83% 30.02 in 10.0 mi SE 6.9 mph - N/A   Clear
8:55 AM 73.4 °F - 68.0 °F 83% 30.03 in 10.0 mi SE 5.8 mph - N/A   Clear
9:15 AM 75.2 °F - 68.0 °F 78% 30.03 in 10.0 mi SE 5.8 mph - N/A   Clear
9:35 AM 77.0 °F - 69.8 °F 78% 30.03 in 10.0 mi SE 6.9 mph - N/A   Clear
9:55 AM 77.0 °F - 71.6 °F 83% 30.02 in 10.0 mi SE 8.1 mph - N/A   Clear
10:15 AM 80.6 °F 84.6 °F 71.6 °F 74% 30.02 in 10.0 mi SSE 6.9 mph - N/A   Clear
10:35 AM 80.6 °F 84.6 °F 71.6 °F 74% 30.02 in 10.0 mi SSE 6.9 mph - N/A   Clear
10:55 AM 82.4 °F 87.2 °F 71.6 °F 70% 30.02 in 10.0 mi SSE 4.6 mph - N/A   Clear
11:15 AM 84.2 °F 90.9 °F 73.4 °F 70% 30.02 in 10.0 mi SSE 8.1 mph - N/A   Clear
11:35 AM 84.2 °F 89.6 °F 71.6 °F 66% 30.03 in 10.0 mi South 9.2 mph - N/A   Clear
11:55 AM 84.2 °F 89.6 °F 71.6 °F 66% 30.03 in 10.0 mi South 9.2 mph - N/A   Clear
12:15 PM 84.2 °F 90.9 °F 73.4 °F 70% 30.02 in 10.0 mi South 4.6 mph - N/A   Partly Cloudy
12:35 PM 86.0 °F 93.4 °F 73.4 °F 66% 30.02 in 10.0 mi SSW 5.8 mph - N/A   Partly Cloudy
12:55 PM 86.0 °F 91.8 °F 71.6 °F 62% 30.01 in 10.0 mi SSW 8.1 mph - N/A   Partly Cloudy
1:15 PM 86.0 °F 93.4 °F 73.4 °F 66% 30.01 in 10.0 mi SSE 5.8 mph - N/A   Clear
1:35 PM 87.8 °F 95.6 °F 73.4 °F 62% 30.00 in 10.0 mi South 8.1 mph - N/A   Partly Cloudy
1:55 PM 86.0 °F 91.8 °F 71.6 °F 62% 29.99 in 10.0 mi South 8.1 mph - N/A   Scattered Clouds
2:15 PM 86.0 °F 93.4 °F 73.4 °F 66% 29.98 in 10.0 mi South 5.8 mph - N/A   Mostly Cloudy
2:35 PM 87.8 °F 95.6 °F 73.4 °F 62% 29.98 in 10.0 mi South 9.2 mph - N/A   Mostly Cloudy
2:55 PM 87.8 °F 93.8 °F 71.6 °F 58% 29.97 in 10.0 mi South 10.4 mph - N/A   Scattered Clouds
3:15 PM 89.6 °F 98.2 °F 73.4 °F 59% 29.97 in 10.0 mi South 10.4 mph - N/A   Scattered Clouds
3:35 PM 89.6 °F 98.2 °F 73.4 °F 59% 29.96 in 10.0 mi South 10.4 mph - N/A   Scattered Clouds
3:55 PM 89.6 °F 96.2 °F 71.6 °F 55% 29.95 in 10.0 mi South 9.2 mph - N/A   Partly Cloudy
4:15 PM 87.8 °F 93.8 °F 71.6 °F 58% 29.94 in 10.0 mi South 10.4 mph 16.1 mph N/A   Scattered Clouds
4:35 PM 87.8 °F 93.8 °F 71.6 °F 58% 29.94 in 10.0 mi South 11.5 mph - N/A   Partly Cloudy
4:55 PM 87.8 °F 93.8 °F 71.6 °F 58% 29.94 in 10.0 mi South 4.6 mph - N/A Thunderstorm Partly Cloudy
5:15 PM 77.0 °F - 68.0 °F 74% 29.97 in 10.0 mi North 10.4 mph 16.1 mph N/A Thunderstorm Mostly Cloudy
5:35 PM 75.2 °F - 68.0 °F 78% 30.00 in 10.0 mi NW 18.4 mph 28.8 mph N/A Thunderstorm Overcast
5:55 PM 68.0 °F - 68.0 °F 100% 30.05 in 0.2 mi NW 13.8 mph 43.7 mph 1.16 in Rain , Thunderstorm Heavy Thunderstorms and Rain
6:15 PM 68.0 °F - 68.0 °F 100% 30.06 in 2.5 mi NNW 6.9 mph - 0.15 in Rain , Thunderstorm Heavy Thunderstorms and Rain
6:35 PM 68.0 °F - 68.0 °F 100% 30.02 in 5.0 mi Calm Calm - 0.16 in Rain , Thunderstorm Light Rain
6:55 PM 68.0 °F - 68.0 °F 100% 29.98 in 6.0 mi SE 11.5 mph - 0.16 in Thunderstorm Mist
7:15 PM 68.0 °F - 68.0 °F 100% 29.97 in 8.0 mi ESE 15.0 mph - N/A Rain , Thunderstorm Light Rain
7:35 PM 68.0 °F - 68.0 °F 100% 29.98 in 7.0 mi SSE 11.5 mph - N/A Rain Light Rain
7:55 PM 68.0 °F - 68.0 °F 100% 29.98 in 7.0 mi SE 10.4 mph - N/A Rain , Thunderstorm Light Rain
8:15 PM 68.0 °F - 68.0 °F 100% 29.99 in 10.0 mi SE 9.2 mph - N/A Rain , Thunderstorm Light Rain
8:35 PM 69.8 °F - 69.8 °F 100% 30.00 in 10.0 mi ESE 9.2 mph - N/A Rain Light Rain
8:55 PM 69.8 °F - 68.0 °F 94% 30.00 in 10.0 mi SSE 12.7 mph - N/A Thunderstorm Mostly Cloudy
9:15 PM 69.8 °F - 68.0 °F 94% 29.97 in 10.0 mi SSE 10.4 mph - N/A   Scattered Clouds
9:35 PM 69.8 °F - 69.8 °F 100% 29.99 in 10.0 mi SE 4.6 mph - N/A   Partly Cloudy
9:55 PM 68.0 °F - 68.0 °F 100% 30.01 in 10.0 mi SE 6.9 mph - N/A   Clear
10:15 PM 69.8 °F - 69.8 °F 100% 30.02 in 10.0 mi SE 6.9 mph - N/A   Clear
10:35 PM 68.0 °F - 68.0 °F 100% 30.03 in 10.0 mi SSE 5.8 mph - N/A   Clear
10:55 PM 68.0 °F - 68.0 °F 100% 30.03 in 10.0 mi Calm Calm - N/A   Clear
11:35 PM 68.0 °F - 68.0 °F 100% 30.03 in 10.0 mi Calm Calm - N/A   Partly Cloudy
11:55 PM 68.0 °F - 68.0 °F 100% 30.02 in 10.0 mi ESE 3.5 mph - N/A   Scattered Clouds